Location: Newark
(0.5300°S, 127.4800°E)
Time: 02:05:57
(UTC+00:00)

Vanguard 3 - Pass Details

Date: 26 September 2019
Orbit: 508 x 3262 km, 33.3° (Epoch: 20 October)

Event Time Altitude Azimuth Distance (km) Brightness Sun altitude
Rises 02:05:01 0° 319° (NW) 6,740 11.7 70.8°
Reaches altitude 10° 02:11:04 10° 333° (NNW) 5,998 11.6 72.3°
Maximum altitude 02:25:25 24° 20° (NNE) 5,046 11.6 75.9°
Drops below altitude 10° 02:38:56 10° 68° (ENE) 5,704 11.7 79.3°
Sets 02:44:19 0° 81° (E) 6,366 11.8 80.7°
